Terug naar catalogus

STARLINK-35408

ActiefCommunicatieVLEO
NORAD 65859·PAYLOAD·🇺🇸 United States

Gelanceerd Oct 3, 2025 vanaf Vandenberg Space Force Base

Loading…

Volgende Passages (komende 24 uur)

TLE

VersSource: CelesTrak SupGP

Epoch: Sep 14, 2026, 23:02 UTC

1 65859C 25223F   26257.96020833 -.00019778  00000+0 -58444-3 0  2578
2 65859  53.1576 131.6335 0001334  79.5678 215.7622 15.34395503    11

Volg STARLINK-35408 in realtime met AllMySat

Download on the App Store